Volver al catálogo

ONEWEB-0230

ActivoComunicacionesPO
NORAD 48769·PAYLOAD·🇬🇧 United Kingdom

Lanzado May 28, 2021 desde Vostochny Cosmodrome

Loading…

Próximos Pases (próximas 24 horas)

TLE

ActualizadoSource: CelesTrak SupGP

Época: Sep 15, 2026, 03:55 UTC

1 48769C 21045C   26258.16337222 -.00003379  00000+0 -89873-2 0  2583
2 48769  87.8987 241.2630 0002145  89.2099  18.9047 13.15549887    11

Sigue ONEWEB-0230 en tiempo real con AllMySat

Download on the App Store